Location: NJAA Observatory
(40.6819°N, 74.8979°W)
Time: 00:24:13
(UTC-05:00)

Cosmos 1328 Rocket - Visible Passes

Search period start: 21 December 2014 00:00
Search period end: 31 December 2014 00:00
Orbit: 604 x 628 km, 82.5° (Epoch: 20 December)

Date Brightness Start Highest point End Pass type
(mag) Time Alt. Az. Time Alt. Az. Time Alt. Az.
24 Dec 4.6 17:52:21 10° NNE 17:55:59 24° ENE 17:59:35 10° SE visible
24 Dec 5.5 19:29:56 10° NNW 19:33:44 28° W 19:37:31 10° SSW visible
25 Dec 6.5 06:24:10 10° ESE 06:26:38 15° E 06:29:08 10° NE visible
25 Dec 3.9 18:08:13 10° N 18:12:28 42° ENE 18:16:41 10° SSE visible
25 Dec 6.4 19:47:10 10° NW 19:49:52 16° W 19:52:33 10° WSW visible
26 Dec 5.9 06:39:06 10° SSE 06:42:45 27° E 06:46:27 10° NNE visible
26 Dec 3.4 18:24:24 10° N 18:28:52 80° E 18:33:18 10° S visible
27 Dec 5.3 17:04:51 10° NE 17:07:00 13° ENE 17:09:09 10° E visible
27 Dec 4.3 18:40:49 10° NNW 18:45:10 54° W 18:49:29 10° S visible
28 Dec 4.7 17:20:02 10° NNE 17:23:36 23° ENE 17:27:08 10° SE visible
28 Dec 5.5 18:57:31 10° NNW 19:01:23 29° W 19:05:13 10° SSW visible
29 Dec 6.6 05:51:55 10° ESE 05:54:17 14° E 05:56:39 10° NE visible
29 Dec 4.0 17:35:52 10° N 17:40:06 41° ENE 17:44:16 10° SSE visible
29 Dec 6.4 19:14:42 10° NW 19:17:30 17° W 19:20:18 10° SW visible
30 Dec 5.9 06:06:46 10° SE 06:10:23 26° E 06:14:02 10° NNE visible
30 Dec 3.5 17:52:01 10° N 17:56:29 77° E 18:00:55 10° SSE visible
